This demonstration page uses our WeatherBlox Daily Observations layout. Learn more.

Left ArrowRight Arrow

41.86663, -103.66717

Hourly Observations for February 10, 2016

Temp ( °F °C ) Dew Point ( °F °C ) Humidity (%) Winds ( mph kmh ) Pressure ( in mb ) Visibility ( mi km ) Precip ( " mm )
12:53 am 00:53 Clear 32 undefined 24 -4.4 73 73 NNW 3 6 30.13 1020 10 16 N/A
1:53 am 01:53 Clear 31 -0.6 24 -4.4 76 76 N 3 6 30.11 1020 10 16 N/A
2:53 am 02:53 Clear 30 -1.1 25 -3.9 82 82 NW 8 13 30.09 1019 10 16 N/A
3:53 am 03:53 Clear 32 undefined 25 -3.9 75 75 NW 13 20 30.06 1018 10 16 N/A
4:53 am 04:53 Clear 31 -0.6 25 -3.9 79 79 NW 9 15 30.07 1018 10 16 N/A
5:53 am 05:53 Clear 36 2.2 25 -3.9 64 64 WNW 16 26 30.06 1018 10 16 N/A
6:53 am 06:53 Clear 36 2.2 25 -3.9 64 64 NW 13 20 30.07 1018 10 16 N/A
7:53 am 07:53 Sunny 39 3.9 25 -3.9 57 57 NW 15 24 30.07 1018 10 16 N/A
8:53 am 08:53 Sunny 44 6.7 26 -3.3 49 49 WNW 15 24 30.06 1018 10 16 N/A
9:53 am 09:53 Sunny 50 10 27 -2.8 41 41 WNW 13 20 30.05 1018 10 16 N/A
10:53 am 10:53 Sunny 56 13.3 28 -2.2 34 34 WNW 15 24 30.04 1017 10 16 N/A
11:53 am 11:53 Sunny 59 15 25 -3.9 27 27 WNW 23 37 30.02 1017 10 16 N/A
12:53 pm 12:53 Sunny 60 15.6 24 -4.4 25 25 WNW 16 26 30.00 1016 10 16 N/A
1:53 pm 13:53 Sunny 62 16.7 25 -3.9 24 24 WNW 16 26 29.98 1015 10 16 N/A
2:53 pm 14:53 Sunny 62 16.7 25 -3.9 24 24 WNW 16 26 30.00 1016 10 16 N/A
3:53 pm 15:53 Sunny 59 15 24 -4.4 26 26 WNW 17 28 30.01 1016 10 16 N/A
4:53 pm 16:53 Sunny 52 11.1 27 -2.8 38 38 NW 12 19 30.07 1018 10 16 N/A
5:53 pm 17:53 Clear 42 5.6 28 -2.2 58 58 NW 9 15 30.11 1020 10 16 N/A
6:53 pm 18:53 Clear 41 5 26 -3.3 55 55 WNW 8 13 30.14 1021 10 16 N/A
7:53 pm 19:53 Clear 38 3.3 26 -3.3 62 62 NW 9 15 30.15 1021 10 16 N/A
8:53 pm 20:53 Clear 38 3.3 25 -3.9 60 60 NW 10 17 30.15 1021 10 16 N/A
9:53 pm 21:53 Clear 33 0.6 26 -3.3 75 75 NW 8 13 30.15 1021 10 16 N/A
10:53 pm 22:53 Clear 32 undefined 25 -3.9 75 75 NNW 6 9 30.15 1021 10 16 N/A
11:53 pm 23:53 Clear 30 -1.1 24 -4.4 79 79 NNW 6 9 30.14 1021 10 16 N/A

Powered by AerisWeather